Time,TemperatureF,DewpointF,PressureIn,WindDirection,WindDirectionDegrees,WindSpeedMPH,WindSpeedGustMPH,Humidity,HourlyPrecipIn,Conditions,Clouds,dailyrainin,SolarRadiationWatts/m^2,SoftwareType,DateUTC
2013-12-24 00:00:00,70.8,58.9,29.90,ENE,60,8.0,12.0,66,0.00,,,0.00,0,Wunderground v.1.15,2013-12-24 10:00:00,
2013-12-24 00:30:00,70.8,60.1,29.88,East,86,8.0,10.0,69,0.00,,,0.00,0,Wunderground v.1.15,2013-12-24 10:30:00,
2013-12-24 01:00:00,70.4,58.9,29.88,SE,146,9.0,9.0,67,0.00,,,0.00,0,Wunderground v.1.15,2013-12-24 11:00:00,
2013-12-24 01:30:00,71.3,60.6,29.88,East,82,6.0,6.0,69,0.00,,,0.00,0,Wunderground v.1.15,2013-12-24 11:30:00,
2013-12-24 02:00:00,70.1,58.2,29.87,East,96,7.0,7.0,66,0.00,,,0.00,0,Wunderground v.1.15,2013-12-24 12:00:00,
2013-12-24 02:30:00,70.1,58.6,29.86,SE,128,6.0,13.0,67,0.00,,,0.00,0,Wunderground v.1.15,2013-12-24 12:30:00,
2013-12-24 03:00:00,69.4,58.8,29.86,ENE,74,7.0,12.0,69,0.00,,,0.00,0,Wunderground v.1.15,2013-12-24 13:00:00,
2013-12-24 03:30:00,69.6,59.8,29.87,East,80,8.0,9.0,71,0.00,,,0.00,0,Wunderground v.1.15,2013-12-24 13:30:00,
2013-12-24 04:00:00,69.4,59.6,29.86,East,97,9.0,9.0,71,0.00,,,0.00,0,Wunderground v.1.15,2013-12-24 14:00:00,
2013-12-24 04:30:00,69.1,58.9,29.87,SE,132,2.0,2.0,70,0.00,,,0.00,0,Wunderground v.1.15,2013-12-24 14:30:00,
2013-12-24 05:00:00,69.1,58.9,29.87,ESE,107,4.0,4.0,70,0.00,,,0.00,0,Wunderground v.1.15,2013-12-24 15:00:00,
2013-12-24 05:30:00,69.8,60.0,29.87,ESE,111,9.0,9.0,71,0.00,,,0.00,0,Wunderground v.1.15,2013-12-24 15:30:00,
2013-12-24 06:00:00,70.8,60.5,29.88,ESE,105,9.0,9.0,70,0.00,,,0.00,0,Wunderground v.1.15,2013-12-24 16:00:00,
2013-12-24 06:30:00,70.4,57.2,29.88,SE,134,10.0,10.0,63,0.00,,,0.00,0,Wunderground v.1.15,2013-12-24 16:30:00,
2013-12-24 07:00:00,70.1,58.2,29.89,SE,132,6.0,12.0,66,0.00,,,0.00,5,Wunderground v.1.15,2013-12-24 17:00:00,
2013-12-24 07:30:00,69.9,57.6,29.90,ESE,107,8.0,8.0,65,0.00,,,0.00,21,Wunderground v.1.15,2013-12-24 17:30:00,
2013-12-24 08:00:00,71.8,59.8,29.92,NE,42,8.0,8.0,66,0.00,,,0.00,178,Wunderground v.1.15,2013-12-24 18:00:00,
2013-12-24 08:30:00,73.9,60.1,29.92,ESE,119,4.0,4.0,62,0.00,,,0.00,281,Wunderground v.1.15,2013-12-24 18:30:00,
2013-12-24 09:00:00,76.5,59.1,29.92,East,88,10.0,10.0,55,0.00,,,0.00,452,Wunderground v.1.15,2013-12-24 19:00:00,
2013-12-24 09:30:00,78.6,54.2,29.92,ENE,59,5.0,5.0,43,0.00,,,0.00,469,Wunderground v.1.15,2013-12-24 19:30:00,
2013-12-24 10:00:00,78.3,57.0,29.92,ENE,78,11.0,11.0,48,0.00,,,0.00,547,Wunderground v.1.15,2013-12-24 20:00:00,
2013-12-24 10:30:00,78.5,58.3,29.92,North,355,12.0,12.0,50,0.00,,,0.00,615,Wunderground v.1.15,2013-12-24 20:30:00,
2013-12-24 11:00:00,79.0,57.6,29.91,NNE,26,11.0,11.0,48,0.00,,,0.00,666,Wunderground v.1.15,2013-12-24 21:00:00,
2013-12-24 11:30:00,80.1,58.0,29.90,ENE,71,9.0,9.0,47,0.00,,,0.00,705,Wunderground v.1.15,2013-12-24 21:30:00,
2013-12-24 12:00:00,79.9,58.5,29.89,SSE,148,9.0,9.0,48,0.00,,,0.00,726,Wunderground v.1.15,2013-12-24 22:00:00,
2013-12-24 12:30:00,80.1,57.5,29.88,NNE,28,11.0,24.0,46,0.00,,,0.00,728,Wunderground v.1.15,2013-12-24 22:30:00,
2013-12-24 13:00:00,80.1,56.8,29.85,East,86,12.0,12.0,45,0.00,,,0.00,719,Wunderground v.1.15,2013-12-24 23:00:00,
2013-12-24 13:30:00,80.1,56.8,29.84,NNE,26,12.0,12.0,45,0.00,,,0.00,698,Wunderground v.1.15,2013-12-24 23:30:00,
2013-12-24 14:00:00,79.9,55.4,29.84,NE,46,13.0,19.0,43,0.00,,,0.00,654,Wunderground v.1.15,2013-12-25 00:00:00,
2013-12-24 14:30:00,79.8,55.9,29.84,NE,54,12.0,12.0,44,0.00,,,0.00,598,Wunderground v.1.15,2013-12-25 00:30:00,
2013-12-24 15:00:00,78.6,59.0,29.84,NE,42,11.0,11.0,51,0.00,,,0.00,512,Wunderground v.1.15,2013-12-25 01:00:00,
2013-12-24 15:30:00,78.5,57.2,29.83,NE,50,11.0,11.0,48,0.00,,,0.00,432,Wunderground v.1.15,2013-12-25 01:30:00,
2013-12-24 16:00:00,78.1,58.5,29.84,NE,44,11.0,12.0,51,0.00,,,0.00,338,Wunderground v.1.15,2013-12-25 02:00:00,
2013-12-24 16:30:00,77.0,59.6,29.84,ENE,61,14.0,14.0,55,0.00,,,0.00,236,Wunderground v.1.15,2013-12-25 02:30:00,
2013-12-24 17:00:00,76.5,58.6,29.84,ENE,58,12.0,15.0,54,0.00,,,0.00,134,Wunderground v.1.15,2013-12-25 03:00:00,
2013-12-24 17:30:00,75.1,59.3,29.85,NNE,15,9.0,9.0,58,0.00,,,0.00,18,Wunderground v.1.15,2013-12-25 03:30:00,
2013-12-24 18:00:00,74.7,60.8,29.86,NE,53,6.0,6.0,62,0.00,,,0.00,0,Wunderground v.1.15,2013-12-25 04:00:00,
2013-12-24 18:30:00,73.9,61.0,29.87,NE,50,9.0,9.0,64,0.00,,,0.00,0,Wunderground v.1.15,2013-12-25 04:30:00,
2013-12-24 19:00:00,72.7,61.1,29.88,ENE,76,8.0,8.0,67,0.00,,,0.00,0,Wunderground v.1.15,2013-12-25 05:00:00,
2013-12-24 19:30:00,72.5,61.7,29.89,ENE,68,6.0,6.0,69,0.00,,,0.00,0,Wunderground v.1.15,2013-12-25 05:30:00,
2013-12-24 20:00:00,71.8,61.1,29.90,ENE,59,11.0,13.0,69,0.00,,,0.00,0,Wunderground v.1.15,2013-12-25 06:00:00,
2013-12-24 20:30:00,71.1,60.8,29.90,East,92,5.0,5.0,70,0.00,,,0.00,0,Wunderground v.1.15,2013-12-25 06:30:00,
2013-12-24 21:00:00,72.3,62.0,29.92,East,90,4.0,4.0,70,0.00,,,0.00,0,Wunderground v.1.15,2013-12-25 07:00:00,
2013-12-24 21:30:00,70.8,61.3,29.91,East,90,5.0,15.0,72,0.00,,,0.00,0,Wunderground v.1.15,2013-12-25 07:30:00,
2013-12-24 22:00:00,69.9,59.3,29.91,East,86,3.0,3.0,69,0.00,,,0.00,0,Wunderground v.1.15,2013-12-25 08:00:00,
2013-12-24 22:30:00,70.9,59.0,29.90,ESE,117,8.0,8.0,66,0.00,,,0.00,0,Wunderground v.1.15,2013-12-25 08:30:00,
2013-12-24 23:00:00,70.9,60.6,29.91,ENE,77,5.0,5.0,70,0.00,,,0.00,0,Wunderground v.1.15,2013-12-25 09:00:00,
2013-12-24 23:30:00,70.8,58.4,29.90,East,88,11.0,13.0,65,0.00,,,0.00,0,Wunderground v.1.15,2013-12-25 09:30:00,